Weather History for Cadillac, MI

Change the Weather History Date:

Sunday, May 12, 2013

  Actual Average Record
Temperature  
Mean Temperature 34 °F -  
Max Temperature 38 °F 66 °F 82 °F (1982)
Min Temperature 28 °F 40 °F 25 °F (1951)
Degree Days  
Heating Degree Days 30    
Moisture  
Dew Point 27 °F    
Average Humidity 75    
Maximum Humidity 89    
Minimum Humidity 57    
Precipitation  
Precipitation 0.00 in - - ()
Sea Level Pressure  
Sea Level Pressure 29.92 in    
Wind  
Wind Speed 14 mph (WNW)    
Max Wind Speed 25 mph    
Max Gust Speed 33 mph    
Visibility 8 miles    
Events Snow    
Averages and records for this station are not official NWS values.
T = Trace of Precipitation, MM = Missing Value Source: NWS Daily Summary

Daily Weather History Graph

Daily Weather History Graph

Search for Another Location

Airport:

Trip Planner

Search our weather history database for the weather conditions in past years. The results will help you decide how hot, cold, wet, or windy it might be!

Date:

Astronomy

May. 12, 2013 Rise Set
Actual Time 6:17 AM EDT 8:58 PM EDT
Civil Twilight 5:44 AM EDT 9:32 PM EDT
Nautical Twilight 5:02 AM EDT 10:14 PM EDT
Astronomical Twilight 4:14 AM EDT 11:02 PM EDT
Moon 8:11 AM EDT (5/12) 11:26 PM EDT (5/12)
Length of Visible Light 15h 47m
Length of Day
14h 40m
Waxing Crescent, 6% of the Moon is Illuminated
May 12
Waxing Crescent
May 18
First Quarter
May 25
Full
May 31
Last Quarter
Jun 8
New

Hourly Weather History & Observations

Time (EDT) Temp. Windchill Dew Point Humidity Pressure Visibility Wind Dir Wind Speed Gust Speed Precip Events Conditions
12:15 AM 36.1 °F 26.9 °F 31.6 °F 84% 29.81 in 10.0 mi West 15.0 mph 19.6 mph N/A   Overcast
12:35 AM 36.1 °F 28.2 °F 31.1 °F 82% 29.81 in 10.0 mi West 11.5 mph - N/A   Overcast
12:54 AM 36.1 °F 27.3 °F 30.6 °F 80% 29.81 in 10.0 mi West 13.8 mph 24.2 mph N/A   Overcast
1:15 AM 36.1 °F 26.9 °F 29.8 °F 78% 29.81 in 10.0 mi West 15.0 mph 24.2 mph N/A   Overcast
1:35 AM 36.1 °F 28.2 °F 30.2 °F 79% 29.81 in 10.0 mi West 11.5 mph 20.7 mph N/A Snow Light Snow
1:54 AM 36.1 °F 27.3 °F 30.0 °F 78% 29.81 in 10.0 mi WNW 13.8 mph 19.6 mph N/A   Overcast
2:15 AM 36.1 °F 25.9 °F 30.4 °F 80% 29.81 in 10.0 mi West 18.4 mph 27.6 mph N/A   Overcast
2:35 AM 36.1 °F 26.5 °F 32.0 °F 85% 29.81 in 7.0 mi West 16.1 mph 25.3 mph N/A Snow Light Snow
2:54 AM 36.0 °F 26.3 °F 32.0 °F 86% 29.81 in 10.0 mi West 16.1 mph 21.9 mph N/A Snow Light Snow
3:15 AM 34.2 °F 25.2 °F 30.7 °F 87% 29.81 in 3.0 mi West 12.7 mph 16.1 mph N/A Snow Light Snow
3:35 AM 33.8 °F 25.3 °F 30.6 °F 88% 29.81 in 2.5 mi West 11.5 mph 20.7 mph N/A Snow Light Snow
3:54 AM 33.8 °F 23.5 °F 30.7 °F 89% 29.81 in 3.0 mi West 16.1 mph 19.6 mph N/A Snow Light Snow
4:15 AM 33.8 °F 24.3 °F 30.2 °F 87% 29.81 in 10.0 mi West 13.8 mph 27.6 mph N/A   Overcast
4:34 AM 33.8 °F 23.5 °F 30.0 °F 86% 29.80 in 5.0 mi West 16.1 mph 26.5 mph N/A Snow Light Snow
4:55 AM 33.8 °F 24.3 °F 30.6 °F 88% 29.81 in 2.0 mi West 13.8 mph 24.2 mph N/A Snow Light Snow
5:34 AM 33.8 °F 24.3 °F 30.7 °F 89% 29.81 in 2.5 mi West 13.8 mph 21.9 mph N/A Snow Light Snow
5:55 AM 33.8 °F 23.9 °F 30.9 °F 89% 29.81 in 2.0 mi West 15.0 mph 23.0 mph N/A Snow Light Snow
6:15 AM 33.8 °F 24.3 °F 30.7 °F 89% 29.82 in 2.5 mi West 13.8 mph 24.2 mph N/A Snow Light Snow
6:34 AM 33.8 °F 24.3 °F 30.9 °F 89% 29.82 in 1.8 mi West 13.8 mph 19.6 mph N/A Snow Light Snow
6:55 AM 33.8 °F 26.4 °F 30.9 °F 89% 29.83 in 1.5 mi West 9.2 mph 20.7 mph N/A Snow Light Snow
7:15 AM 33.8 °F 23.2 °F 30.9 °F 89% 29.84 in 1.2 mi WNW 17.3 mph 23.0 mph N/A Snow Light Snow
7:35 AM 33.8 °F 24.3 °F 30.9 °F 89% 29.85 in 1.0 mi WNW 13.8 mph 19.6 mph N/A Snow Light Snow
7:55 AM 33.8 °F 24.3 °F 30.9 °F 89% 29.85 in 2.0 mi WNW 13.8 mph 18.4 mph N/A Snow Light Snow
8:14 AM 33.8 °F 24.8 °F 30.7 °F 89% 29.86 in 2.0 mi WNW 12.7 mph 20.7 mph N/A Snow Light Snow
8:35 AM 33.8 °F 23.9 °F 30.6 °F 88% 29.86 in 2.5 mi WNW 15.0 mph 20.7 mph N/A Snow Light Snow
8:55 AM 36.1 °F 26.9 °F 32.4 °F 86% 29.87 in 2.0 mi WNW 15.0 mph 21.9 mph N/A Snow Light Snow
9:14 AM 36.1 °F 25.5 °F 32.4 °F 86% 29.87 in 1.2 mi WNW 19.6 mph 24.2 mph N/A Snow Light Snow
9:35 AM 36.1 °F 26.5 °F 32.2 °F 86% 29.88 in 4.0 mi West 16.1 mph 29.9 mph N/A Snow Light Snow
9:55 AM 36.1 °F 24.2 °F 32.0 °F 85% 29.88 in 2.0 mi WNW 25.3 mph 31.1 mph N/A Snow Light Snow
10:14 AM 35.4 °F 24.3 °F 31.5 °F 85% 29.89 in 4.0 mi WNW 20.7 mph 28.8 mph N/A   Haze
10:35 AM 36.0 °F 25.6 °F 30.2 °F 80% 29.90 in 10.0 mi NW 18.4 mph 29.9 mph N/A   Overcast
10:55 AM 33.8 °F 22.2 °F 27.7 °F 78% 29.91 in 10.0 mi WNW 20.7 mph 32.2 mph N/A   Overcast
11:14 AM 33.8 °F 21.6 °F 26.8 °F 75% 29.91 in 10.0 mi WNW 23.0 mph 33.4 mph N/A   Overcast
11:35 AM 33.8 °F 23.2 °F 27.5 °F 78% 29.92 in 10.0 mi WNW 17.3 mph 27.6 mph N/A   Overcast
11:55 AM 33.8 °F 23.5 °F 26.6 °F 75% 29.93 in 10.0 mi WNW 16.1 mph 26.5 mph N/A   Overcast
12:15 PM 33.8 °F 23.2 °F 26.4 °F 74% 29.93 in 10.0 mi WNW 17.3 mph 26.5 mph N/A   Overcast
12:35 PM 33.8 °F 22.2 °F 25.7 °F 72% 29.94 in 10.0 mi WNW 20.7 mph 28.8 mph N/A   Overcast
12:55 PM 34.5 °F 23.8 °F 26.2 °F 72% 29.94 in 10.0 mi WNW 18.4 mph 26.5 mph N/A   Overcast
1:15 PM 33.8 °F 24.3 °F 25.2 °F 71% 29.95 in 10.0 mi WNW 13.8 mph 31.1 mph N/A   Overcast
1:35 PM 36.1 °F 25.2 °F 27.0 °F 69% 29.96 in 10.0 mi WNW 20.7 mph 28.8 mph N/A   Overcast
1:54 PM 36.1 °F 25.9 °F 27.1 °F 70% 29.96 in 10.0 mi WNW 18.4 mph - N/A   Overcast
2:15 PM 36.1 °F 26.9 °F 27.0 °F 69% 29.96 in 10.0 mi WNW 15.0 mph 24.2 mph N/A   Overcast
2:35 PM 36.1 °F 25.9 °F 26.6 °F 68% 29.97 in 10.0 mi WNW 18.4 mph 29.9 mph N/A   Overcast
2:54 PM 36.1 °F 25.5 °F 27.0 °F 69% 29.97 in 10.0 mi NW 19.6 mph 26.5 mph N/A   Overcast
3:15 PM 36.1 °F 26.2 °F 25.7 °F 66% 29.97 in 10.0 mi WNW 17.3 mph 27.6 mph N/A   Overcast
3:35 PM 36.1 °F 27.7 °F 25.7 °F 66% 29.98 in 10.0 mi NW 12.7 mph 27.6 mph N/A   Overcast
3:54 PM 36.1 °F 27.7 °F 24.8 °F 63% 29.98 in 10.0 mi WNW 12.7 mph 28.8 mph N/A   Overcast
4:15 PM 36.1 °F 27.7 °F 24.3 °F 62% 29.98 in 10.0 mi NW 12.7 mph 25.3 mph N/A   Overcast
4:35 PM 36.1 °F 25.9 °F 24.1 °F 62% 29.98 in 10.0 mi WNW 18.4 mph 21.9 mph N/A   Overcast
4:54 PM 36.1 °F 26.9 °F 24.3 °F 62% 29.99 in 10.0 mi NW 15.0 mph 24.2 mph N/A   Overcast
5:15 PM 36.1 °F 26.9 °F 23.9 °F 61% 30.00 in 10.0 mi NW 15.0 mph 25.3 mph N/A   Overcast
5:34 PM 36.1 °F 27.7 °F 24.3 °F 62% 30.00 in 10.0 mi WNW 12.7 mph 25.3 mph N/A   Overcast
5:55 PM 36.1 °F 26.5 °F 23.2 °F 59% 30.00 in 10.0 mi NW 16.1 mph 21.9 mph N/A   Overcast
6:15 PM 38.5 °F 29.9 °F 25.0 °F 58% 30.01 in 10.0 mi NW 15.0 mph 23.0 mph N/A   Overcast
6:34 PM 38.7 °F 31.4 °F 24.8 °F 58% 30.01 in 10.0 mi NW 11.5 mph 17.3 mph N/A   Overcast
6:55 PM 37.0 °F 28.9 °F 23.0 °F 57% 30.02 in 10.0 mi NW 12.7 mph 17.3 mph N/A   Overcast
7:15 PM 36.3 °F 28.9 °F 22.5 °F 57% 30.02 in 10.0 mi NW 10.4 mph 19.6 mph N/A   Overcast
7:34 PM 36.1 °F 26.5 °F 22.3 °F 57% 30.02 in 10.0 mi NW 16.1 mph 24.2 mph N/A   Overcast
7:55 PM 36.1 °F 27.3 °F 22.6 °F 58% 30.02 in 10.0 mi WNW 13.8 mph 21.9 mph N/A   Mostly Cloudy
8:15 PM 36.1 °F 29.9 °F 22.1 °F 57% 30.03 in 10.0 mi NW 8.1 mph - N/A   Mostly Cloudy
8:35 PM 36.1 °F 28.2 °F 23.5 °F 60% 30.03 in 10.0 mi NNW 11.5 mph - N/A   Scattered Clouds
8:55 PM 34.2 °F 26.8 °F 23.0 °F 64% 30.03 in 10.0 mi NW 9.2 mph - N/A   Clear
9:15 PM 33.8 °F 27.0 °F 24.1 °F 68% 30.03 in 10.0 mi NW 8.1 mph - N/A   Clear
9:35 PM 32.4 °F 27.9 °F 23.7 °F 70% 30.04 in 10.0 mi NW 4.6 mph - N/A   Clear
9:55 PM 31.5 °F 28.1 °F 23.2 °F 71% 30.04 in 10.0 mi NW 3.5 mph - N/A   Clear
10:15 PM 31.5 °F 28.1 °F 23.9 °F 74% 30.04 in 10.0 mi WNW 3.5 mph - N/A   Clear
10:35 PM 31.5 °F 26.8 °F 24.4 °F 75% 30.04 in 10.0 mi West 4.6 mph - N/A   Clear
10:55 PM 31.5 °F - 24.8 °F 76% 30.05 in 10.0 mi Calm Calm - N/A   Clear
11:15 PM 31.5 °F - 24.8 °F 76% 30.05 in 10.0 mi Calm Calm - N/A   Clear
11:35 PM 31.5 °F - 24.8 °F 76% 30.05 in 10.0 mi Calm Calm - N/A   Clear
11:55 PM 28.9 °F 25.2 °F 22.6 °F 77% 30.04 in 10.0 mi WNW 3.5 mph - N/A   Clear